EHI
2 2 2 2 1 0 0 0 0 0 0 0 0 0 0 0 0 0 0 0 0 0 0 0 0 1 1 0 0 0 0 0 0 0 0 0 0 0 0 0 0 0 0 0 0 0 0 1 2
1 1 3 3 1 0 0 0 0 0 0 0 0 0 0 0 0 0 0 0 0 0 0 0 1 2 2 1 1 0 1 1 0 0 0 0 0 0 0 0 0 0 0 0 0 0 0 1 2
3 4 4 2 0 0 0 0 0 0 0 0 0 0 0 0 0 0 0 0 0 0 0 0 1 2 3 2 1 1 1 1 1 1 1 0 0 0 0 0 0 0 0 0 0 0 0 0 1
6 6 3 1 0 0 0 0 0 0 0 0 0 0 0 0 0 0 0 0 0 0 0 0 1 2 2 2 1 0 1 1 1 1 1 0 0 0 0 0 1 0 0 0 0 0 0 0 0
5 3 2 0 0 0 0 0 0 0 0 0 0 0 0 0 0 0 0 0 0 0 0 0 1 1 1 1 0 0 0 0 0 0 0 0 0 0 0 0 0 0 0 0 0 0 0 0 0
1 0 0 0 0 0 0 0 0 0 0 0 0 0 0 0 0 0 0 0 0 0 0 0 0 0 0 0 0 0 0 0 0 0 0 0 0 0 0 0 0 0 0 0 0 0 0 0 0
0 0 0 0 0 0 0 0 0 0 0 0 0 0 0 0 0 0 0 0 0 0 0 0 0 0 0 1 0 0 0 0 0 0 0 0 0 0 0 0 0 0 0 0 0 0 0 0 0
0 0 0 0 0 0 0 0 0 0 0 0 0 0 0 0 0 0 0 0 0 0 0 0 0 0 0 0 0 0 0 0 0 0 0 0 0 0 0 0 0 0 0 0 0 0 0 0 0
0 0 0 0 0 0 0 0 0 0 0 0 0 0 0 0 0 0 0 0 1 1 0 0 0 0 0 0 0 0 0 0 0 0 0 0 0 0 0 0 0 0 0 0 0 0 0 0 0
0 0 0 0 0 0 0 0 0 0 0 0 0 0 0 0 0 0 0 1 3 2 1 0 0 0 0 0 0 0 0 0 0 0 0 0 0 0 0 0 0 0 0 0 0 0 0 0 0
0 0 0 0 0 0 0 0 0 0 0 0 0 0 0 0 0 1 1 1 3 3 2 1 0 0 0 0 0 0 0 0 0 0 0 0 0 0 0 0 0 0 0 0 0 0 0 0 0
0 0 0 0 0 0 0 0 0 0 0 0 0 0 0 0 0 0 1 2 3 4 3 2 2 2 2 1 1 0 0 0 0 0 0 0 0 0 0 0 0 0 0 0 0 0 0 0 0
0 0 0 0 0 1 0 0 0 0 0 0 0 0 0 0 0 0 0 1 2 3 3 4 5 5 5 3 2 1 0 0 0 0 0 0 0 0 0 0 0 0 0 0 0 0 0 0 0
0 0 0 0 0 0 0 0 0 0 0 0 0 0 0 0 0 0 0 0 1 1 2 4 6 7 6 5 3 2 1 0 0 0 0 0 0 0 0 0 0 0 0 1 1 1 0 0 0
0 0 0 0 0 0 0 0 0 0 0 0 0 0 0 0 0 0 0 0 0 0 2 4 6 7 6 4 3 3 1 1 1 1 0 0 0 0 0 0 0 0 1 1 1 1 0 0 0
0 0 0 0 0 0 0 0 0 0 0 0 0 0 0 0 0 0 0 0 0 2 5 6 7 7 6 4 3 3 2 2 2 1 0 0 0 0 0 0 0 1 2 1 1 0 0 0 0
0 0 0 0 0 0 0 0 0 0 0 0 0 0 0 0 1 1 1 1 2 5 8 8 8 8 7 5 3 3 2 1 1 0 0 0 0 0 0 0 1 2 2 1 0 0 0 0 0
0 0 0 0 0 0 1 1 1 0 0 0 0 0 0 0 1 2 2 3 5 7 9 9 9 9 8 5 3 1 1 0 0 0 1 0 0 0 0 1 2 2 1 0 0 0 0 0 0
0 0 0 0 0 0 1 1 1 0 0 0 1 1 1 1 3 5 6 7 8 8 9 9 9 8 7 5 2 0 0 0 0 0 0 0 0 0 0 1 2 2 1 0 0 1 1 1 0
0 0 0 0 0 0 0 0 0 0 1 0 1 2 3 5 7 10 11 10 9 9 9 9 8 7 6 4 2 0 0 0 0 0 0 0 0 0 0 0 1 2 2 1 0 1 1 1 0
0 0 0 0 0 0 0 0 0 0 0 0 0 1 3 6 10 12 12 11 10 9 8 8 8 7 6 5 3 1 0 0 0 0 0 0 0 0 0 0 1 2 2 2 1 0 0 0 0
0 0 0 0 0 0 0 0 1 0 0 1 1 1 2 5 8 10 11 11 10 8 7 9 11 10 8 7 4 2 0 0 1 1 1 1 0 0 0 0 0 1 1 1 1 0 0 0 0
0 0 0 0 0 0 0 0 0 0 1 2 3 3 3 4 6 7 9 11 10 9 9 12 15 14 11 9 7 4 2 1 1 2 3 2 1 1 0 0 0 0 0 1 1 1 1 0 0
0 0 0 0 0 0 0 0 0 0 1 2 4 5 4 3 3 4 8 12 13 11 11 15 18 17 14 11 9 8 6 4 3 4 5 4 3 2 1 1 1 1 0 0 1 2 2 1 0
0 0 0 0 0 0 0 0 0 0 0 1 3 4 4 3 2 3 8 14 16 13 12 16 19 19 16 13 10 9 8 7 6 5 5 3 3 3 3 3 3 2 1 1 1 1 1 1 1
0 0 0 0 0 0 0 0 0 0 0 1 2 4 4 2 1 2 8 14 16 13 13 16 20 20 18 16 13 10 10 10 9 8 5 2 2 2 3 4 4 3 2 2 2 2 2 2 3
0 0 0 0 0 0 0 0 0 1 1 2 4 5 4 2 1 1 5 12 14 12 12 15 19 21 20 18 14 11 12 12 11 10 7 3 2 2 3 3 4 3 3 3 3 3 4 6 6
0 0 0 0 0 0 0 0 1 2 3 4 5 6 4 3 1 0 3 8 11 10 10 13 17 19 18 17 14 13 15 13 11 10 9 6 4 4 4 3 3 3 3 3 4 5 7 9 10
0 0 0 0 0 0 0 0 1 2 4 4 5 6 5 3 2 1 3 6 9 11 11 12 15 16 15 13 13 15 16 14 10 9 8 7 7 6 5 4 3 3 3 5 7 8 10 12 13
0 0 0 0 0 0 0 0 1 2 2 3 4 6 6 4 3 4 5 6 10 12 13 14 14 14 13 11 12 16 17 14 10 9 8 8 8 7 5 4 3 3 4 7 10 12 13 14 15
Wind_Speed
12 9 6 5 4 4 10 9 7 6 6 6 6 5 7 9 8 7 5 5 5 5 7 8 7 7 7 8 8 9 10 10 11 11 11 11 12 12 13 12 12 12 12 12 12 11 11 11 11
8 6 5 5 1 7 10 8 9 9 7 5 6 6 7 8 8 6 5 5 5 6 6 7 8 8 8 8 8 9 10 11 11 11 11 11 11 12 12 12 12 12 12 12 11 11 11 11 10
6 6 5 0 8 9 10 9 8 8 6 5 5 6 7 7 6 5 6 5 5 6 6 8 7 8 8 8 9 10 10 10 10 11 10 11 11 11 11 11 11 11 11 11 11 11 10 10 9
5 5 4 4 12 11 9 8 6 7 7 6 6 8 8 7 5 6 7 5 6 6 6 9 6 7 8 9 9 10 10 9 10 10 10 11 11 11 11 11 11 11 10 10 10 10 9 9 8
5 3 3 10 13 10 9 8 6 7 7 7 7 9 9 8 8 8 7 6 6 7 7 8 8 8 8 8 9 9 9 9 10 10 10 10 10 11 10 10 10 10 9 9 9 9 8 8 7
4 2 5 10 12 9 8 7 7 9 9 8 8 10 9 7 8 7 7 6 7 7 7 8 8 8 8 8 8 9 9 9 9 10 10 10 10 10 10 9 9 9 9 8 8 7 7 6 6
2 3 9 10 10 10 7 6 7 8 9 8 6 9 8 8 7 7 7 6 6 6 6 7 7 8 8 8 8 9 9 9 9 9 10 10 10 9 9 9 8 8 8 7 7 6 5 5 5
3 1 8 9 10 10 8 6 7 8 9 7 4 6 8 8 6 7 7 7 6 6 6 6 6 6 6 9 10 9 9 9 9 9 9 9 9 10 10 9 8 7 7 6 5 5 4 4 4
4 2 9 9 8 9 7 7 8 7 9 7 7 8 10 10 8 7 7 7 6 6 5 5 6 6 5 7 10 10 10 9 8 9 9 6 6 7 8 9 8 7 6 5 5 4 3 3 6
1 7 11 8 7 9 8 7 7 6 9 8 9 11 11 9 7 6 7 7 7 6 5 5 5 6 5 6 6 5 6 6 4 5 5 4 4 3 5 10 7 6 5 5 4 3 4 4 4
4 8 8 7 6 7 8 7 5 5 7 7 9 10 10 8 7 6 6 6 6 6 5 6 6 5 5 4 4 3 3 4 4 5 4 3 3 4 4 4 5 5 5 4 5 4 2 1 2
6 8 6 6 6 6 7 7 6 6 8 8 9 10 9 7 6 5 6 6 6 5 5 5 6 5 4 4 4 3 3 3 3 4 3 3 2 2 3 2 2 2 2 2 2 1 2 1 1
6 7 7 7 7 7 7 7 6 7 8 9 10 9 8 7 6 5 5 6 6 5 5 5 5 5 4 3 2 3 3 3 4 3 3 2 2 2 3 2 1 1 1 2 2 2 2 1 0
6 7 7 7 8 6 6 7 5 7 8 9 9 8 7 6 5 5 5 5 5 5 5 5 5 5 4 4 3 2 2 3 2 2 3 1 2 2 1 1 1 1 1 1 1 2 2 1 1
6 7 7 6 5 5 5 6 6 9 9 9 8 7 7 6 5 4 4 4 5 5 5 5 5 5 4 4 3 3 2 3 3 3 3 2 1 2 1 1 1 1 1 2 1 1 1 1 1
5 4 5 6 4 4 5 6 8 9 9 8 8 7 6 5 5 5 5 4 5 5 6 5 4 5 5 3 2 2 2 3 2 2 3 2 2 1 1 1 1 1 1 2 2 1 1 1 1
6 2 3 5 4 3 4 4 9 9 8 8 8 7 7 6 6 6 6 6 5 5 6 5 4 5 5 4 3 3 2 2 2 2 2 2 1 1 0 1 2 0 1 1 0 2 1 1 1
2 2 2 2 4 4 3 2 8 9 8 8 8 7 7 7 6 6 6 6 6 6 6 5 5 5 4 4 3 2 2 2 2 2 2 2 1 1 0 2 1 0 1 1 2 2 1 1 1
2 2 1 2 3 4 4 3 6 9 10 9 8 8 7 7 7 7 7 6 7 7 6 6 5 5 4 3 3 3 2 2 2 2 3 1 1 2 0 1 1 0 1 1 1 1 2 2 1
5 4 2 3 3 4 4 5 5 9 10 9 8 8 8 8 8 8 8 7 7 7 7 6 6 5 5 4 2 2 1 2 2 2 2 1 1 1 1 1 1 1 1 1 1 0 0 1 1
6 5 3 1 3 5 5 6 7 9 9 9 9 9 9 9 9 10 10 9 8 8 8 6 6 6 5 4 4 3 3 2 3 2 2 1 1 1 2 1 1 1 0 2 1 1 0 0 1
6 2 4 4 6 3 5 4 6 8 9 10 11 11 11 10 10 10 11 10 9 9 8 8 7 6 6 5 4 4 3 3 2 2 2 2 1 1 1 1 1 1 1 1 1 2 0 1 0
3 2 4 5 7 7 5 7 3 7 7 9 10 11 11 11 11 11 11 11 10 10 9 9 8 7 7 6 5 4 3 3 3 2 3 1 2 1 1 1 1 1 1 1 2 1 1 1 1
5 5 5 7 8 8 4 6 2 4 4 5 8 9 10 10 10 10 11 11 10 10 10 9 9 8 7 7 6 5 4 3 2 2 2 2 2 2 2 1 1 0 1 1 1 0 1 1 2
10 9 7 7 7 4 2 6 2 1 2 3 5 7 9 10 10 10 11 11 11 11 11 10 10 9 8 8 7 6 5 5 4 3 3 1 1 2 1 1 0 0 1 1 0 1 1 0 1
12 12 8 6 4 3 5 6 1 2 1 2 4 6 8 9 10 10 11 11 11 11 11 11 10 9 9 8 7 6 6 5 4 3 2 2 1 1 2 1 1 0 0 1 1 0 1 0 1
10 11 9 9 8 7 4 3 3 4 4 5 5 6 7 7 8 10 11 11 11 11 11 10 10 9 9 8 7 6 6 5 3 4 4 2 1 1 2 1 1 1 1 0 1 0 0 0 1
8 7 7 9 7 8 6 6 3 5 5 5 6 6 6 7 7 8 9 10 10 11 11 10 10 9 9 8 8 7 7 6 6 5 4 2 2 1 2 2 2 1 1 1 2 2 1 1 1
10 10 9 8 8 9 6 2 2 2 3 5 5 5 5 7 7 7 7 9 10 10 11 11 10 9 8 8 8 7 7 7 7 5 5 4 3 3 3 2 2 2 2 2 2 2 1 2 1
10 11 11 9 9 9 9 2 4 2 3 3 4 4 5 5 6 7 7 8 9 10 10 10 11 11 10 9 8 8 7 7 7 6 6 5 4 4 4 3 3 3 3 2 3 3 2 2 2
Wind_Direction
175 182 205 231 225 82 61 54 50 55 55 52 50 40 41 34 25 62 68 69 70 82 88 99 95 106 110 109 108 109 108 108 109 108 108 113 119 121 122 121 121 123 122 121 120 119 119 119 121
172 181 221 238 6 70 66 56 56 54 72 78 70 63 59 59 51 78 87 78 82 83 83 82 90 102 105 107 108 111 111 111 111 109 108 109 115 121 122 120 120 121 121 121 120 120 120 120 121
179 220 259 296 49 52 63 62 67 79 76 64 67 53 46 58 65 71 85 96 87 80 79 85 90 96 100 105 108 112 113 112 112 110 110 110 111 115 118 118 120 119 119 120 121 121 121 122 121
209 219 229 68 67 59 62 68 74 86 77 63 74 78 71 56 59 86 102 98 96 95 87 88 92 94 100 104 105 111 116 115 113 111 111 110 111 111 109 112 113 114 116 118 120 121 121 122 124
237 250 98 76 71 70 68 65 69 66 70 71 73 85 78 67 85 101 107 104 95 87 84 91 93 99 101 105 105 110 113 114 113 113 111 111 109 109 107 107 109 112 114 116 117 118 120 124 129
240 252 67 72 77 77 75 74 77 73 80 78 83 88 80 91 97 100 100 95 91 93 92 95 99 99 103 106 108 112 114 114 113 114 114 114 113 111 110 108 108 112 113 113 116 119 123 126 131
316 44 69 76 85 82 73 69 66 77 80 73 79 89 99 98 99 105 98 93 90 91 94 95 108 112 115 112 113 116 117 115 115 116 115 116 117 118 117 114 114 112 116 117 120 122 125 126 132
310 71 78 77 80 81 90 82 71 74 80 83 71 90 110 111 114 108 106 107 100 94 93 99 100 101 119 125 121 121 119 114 114 117 116 123 131 131 130 132 120 118 117 121 127 130 130 134 144
259 74 68 64 75 91 105 102 92 89 98 88 74 83 105 120 123 118 114 108 103 99 101 105 106 105 108 112 122 132 129 123 132 127 127 149 141 134 142 112 118 122 121 123 121 126 136 158 158
284 64 66 61 71 97 108 99 107 117 104 98 96 98 112 126 129 123 116 117 113 110 112 107 103 100 104 104 117 123 124 119 117 108 123 126 116 111 107 117 121 121 127 138 129 140 184 217 156
60 66 74 83 85 102 112 106 105 111 100 107 118 124 130 132 131 124 114 109 110 119 114 112 109 114 110 107 113 107 112 113 122 114 118 111 120 124 122 130 141 150 165 158 146 184 197 117 78
89 78 79 88 101 111 106 105 100 81 82 109 123 129 133 137 130 122 116 116 118 118 112 109 114 112 100 97 107 119 120 122 118 120 128 112 105 105 104 112 114 137 134 131 155 139 99 51 77
96 91 94 101 112 108 111 103 99 99 105 119 126 133 137 136 128 122 116 121 125 128 126 119 117 115 118 113 117 112 114 116 115 110 109 100 110 103 98 82 76 105 118 151 156 122 111 95 97
95 106 110 113 115 124 118 111 120 117 131 134 139 143 143 139 136 129 132 136 140 141 134 132 138 132 131 127 118 104 112 118 110 107 100 96 97 90 93 125 110 98 120 104 128 114 129 149 91
135 130 126 124 130 136 150 124 116 133 147 148 149 148 149 152 149 148 146 147 147 146 142 143 144 136 139 136 137 128 133 124 109 104 111 124 115 103 118 106 143 101 108 119 121 112 147 166 135
179 181 138 130 146 158 237 99 125 152 162 159 158 156 163 164 167 159 152 153 149 146 148 153 149 139 140 136 129 115 96 95 103 112 116 119 111 132 162 127 91 96 131 133 138 159 136 92 89
195 186 111 130 166 173 240 99 136 166 176 171 170 168 172 168 174 165 161 159 157 154 154 153 147 141 141 136 135 126 107 94 102 103 99 105 120 127 152 69 63 172 117 106 106 93 45 96 87
186 188 140 129 154 205 233 133 148 174 189 184 180 179 179 178 175 168 168 162 160 157 157 157 155 148 150 148 144 136 126 119 112 106 92 87 104 100 47 121 86 84 104 99 80 94 89 82 105
254 251 161 109 133 223 240 217 170 179 195 196 190 186 186 184 172 169 171 172 168 165 165 168 166 154 164 161 168 155 148 134 122 116 100 103 79 85 53 66 110 61 87 55 98 121 138 124 120
233 234 207 138 150 243 250 235 190 187 201 204 199 195 194 187 177 175 179 180 180 176 175 173 174 168 175 158 160 151 137 143 120 100 102 114 101 89 128 71 111 76 96 103 96 120 327 120 162
234 245 251 238 190 217 256 211 190 189 202 204 207 205 200 196 188 182 185 186 183 181 182 180 178 174 180 171 170 155 154 160 136 133 125 106 96 99 50 66 37 53 44 91 119 154 178 189 157
230 226 250 243 243 225 250 269 174 188 194 201 205 207 204 200 196 189 187 188 187 184 180 179 176 177 176 180 180 171 164 145 129 122 114 123 106 83 83 71 67 29 51 88 183 104 249 268 206
232 169 238 245 256 266 225 268 160 172 202 202 201 202 203 200 199 195 192 188 189 185 179 176 176 177 178 183 179 189 178 156 149 140 123 138 113 94 76 80 72 80 71 61 31 74 323 287 317
168 188 211 233 246 250 243 265 244 165 206 203 191 192 195 194 196 196 192 187 187 185 181 177 175 178 178 183 184 191 181 171 158 159 151 167 141 130 106 106 86 89 69 89 72 91 134 1 352
205 221 223 219 221 233 184 253 270 76 171 209 189 178 184 187 189 191 189 186 188 188 186 182 178 178 179 184 188 187 185 184 187 197 175 199 154 138 112 82 112 84 99 102 82 149 26 40 350
214 233 248 260 257 224 188 241 159 122 163 189 171 168 172 178 185 189 187 185 187 188 187 186 181 181 182 184 185 186 190 198 189 194 211 185 191 113 101 128 149 129 126 122 119 197 157 161 271
213 229 256 264 262 263 224 220 210 187 188 170 161 161 166 171 177 185 184 184 185 187 186 186 181 182 184 184 183 188 193 200 188 175 198 197 183 164 145 162 161 154 142 142 203 116 307 241 259
247 233 230 247 254 255 235 234 223 184 184 171 168 167 167 171 174 177 181 184 184 184 183 184 180 182 184 185 189 185 187 190 193 197 190 192 187 191 187 184 183 185 189 197 224 211 167 240 254
197 213 232 248 258 264 258 228 85 164 177 185 178 170 172 176 175 173 175 179 180 182 181 182 181 184 187 189 188 187 187 189 193 195 193 194 198 196 205 205 203 205 209 201 204 239 205 232 242
228 224 220 233 237 251 270 245 111 150 183 185 176 166 169 175 174 171 171 174 179 181 183 185 185 187 189 188 186 187 187 188 194 194 196 197 199 206 202 207 209 212 211 209 214 229 222 227 231